• In Uzbekistan
  • List of Countries
  • For 7 days
  • Water Temperature
  • Weather Map
  • Weather Widgets
  • user-avatar
    Login

    Hourly Weather Bad Schandau

    Today, 30 March, Monday

    Time Temperature Precipitation Wind Pressure Humidity
    00:00 -3°C° 0.2 mm 6 mps 712 mmHg 95%
    01:00 -4°C° 0 mm 6 mps 713 mmHg 93%
    02:00 -4°C° 0.1 mm 6 mps 713 mmHg 93%
    03:00 -4°C° 0.1 mm 6 mps 713 mmHg 93%
    04:00 -6°C° 0.1 mm 7 mps 713 mmHg 93%
    05:00 -6°C° 0 mm 7 mps 713 mmHg 92%
    06:00 -7°C° 0 mm 7 mps 713 mmHg 91%
    07:00 -6°C° 0 mm 6 mps 713 mmHg 91%
    08:00 -5°C° 0 mm 6 mps 713 mmHg 86%
    09:00 -4°C° 0 mm 6 mps 713 mmHg 82%
    10:00 -3°C° 0 mm 6 mps 713 mmHg 78%
    11:00 -2°C° 0 mm 6 mps 713 mmHg 72%
    12:00 -1°C° 0 mm 6 mps 713 mmHg 66%
    13:00 +1°C° 0 mm 5 mps 713 mmHg 62%
    14:00 +1°C° 0 mm 5 mps 713 mmHg 58%
    15:00 +1°C° 0 mm 5 mps 713 mmHg 53%
    16:00 +2°C° 0 mm 5 mps 713 mmHg 49%
    17:00 0°C° 0 mm 4 mps 713 mmHg 53%
    18:00 -1°C° 0 mm 3 mps 713 mmHg 58%
    19:00 -2°C° 0 mm 3 mps 713 mmHg 62%
    20:00 -4°C° 0 mm 3 mps 713 mmHg 62%
    21:00 -4°C° 0 mm 2 mps 713 mmHg 63%
    22:00 -5°C° 0 mm 2 mps 713 mmHg 63%
    23:00 -5°C° 0 mm 2 mps 713 mmHg 63%

    Tomorrow, 31 March, Tuesday

    Time Temperature Precipitation Wind Pressure Humidity
    00:00 -5°C° 0 mm 2 mps 713 mmHg 63%
    01:00 -5°C° 0 mm 2 mps 714 mmHg 63%
    02:00 -5°C° 0 mm 2 mps 713 mmHg 63%
    03:00 -5°C° 0 mm 2 mps 713 mmHg 64%
    04:00 -6°C° 0 mm 2 mps 713 mmHg 64%
    05:00 -5°C° 0 mm 2 mps 714 mmHg 62%
    06:00 -5°C° 0 mm 2 mps 714 mmHg 61%
    07:00 -4°C° 0 mm 2 mps 714 mmHg 59%
    08:00 -2°C° 0 mm 3 mps 714 mmHg 53%
    09:00 0°C° 0 mm 3 mps 714 mmHg 48%
    10:00 +1°C° 0 mm 4 mps 714 mmHg 42%
    11:00 +3°C° 0 mm 4 mps 714 mmHg 42%
    12:00 +4°C° 0 mm 4 mps 714 mmHg 42%
    13:00 +5°C° 0 mm 4 mps 714 mmHg 41%
    14:00 +5°C° 0 mm 4 mps 714 mmHg 43%
    15:00 +5°C° 0 mm 4 mps 714 mmHg 44%
    16:00 +5°C° 0 mm 4 mps 714 mmHg 46%
    17:00 +3°C° 0 mm 4 mps 714 mmHg 53%
    18:00 +1°C° 0 mm 3 mps 714 mmHg 61%
    19:00 -1°C° 0 mm 3 mps 714 mmHg 69%
    20:00 -2°C° 0 mm 3 mps 714 mmHg 69%
    21:00 -2°C° 0 mm 3 mps 714 mmHg 69%
    22:00 -4°C° 0 mm 3 mps 714 mmHg 70%
    23:00 -5°C° 0 mm 3 mps 714 mmHg 72%

    Day after tomorrow, 1 April, Wednesday

    Time Temperature Precipitation Wind Pressure Humidity
    00:00 -5°C° 0 mm 3 mps 714 mmHg 75%
    01:00 -6°C° 0 mm 3 mps 713 mmHg 78%
    02:00 -5°C° 0 mm 2 mps 713 mmHg 79%
    03:00 -5°C° 0 mm 2 mps 712 mmHg 80%
    04:00 -6°C° 0 mm 2 mps 712 mmHg 81%
    05:00 -5°C° 0 mm 2 mps 712 mmHg 81%
    06:00 -5°C° 0 mm 2 mps 712 mmHg 80%
    07:00 -5°C° 0 mm 2 mps 712 mmHg 80%
    08:00 -2°C° 0 mm 2 mps 711 mmHg 68%
    09:00 +2°C° 0 mm 2 mps 711 mmHg 56%
    10:00 +4°C° 0 mm 2 mps 711 mmHg 44%
    11:00 +5°C° 0 mm 2 mps 711 mmHg 41%
    12:00 +7°C° 0 mm 2 mps 711 mmHg 38%
    13:00 +8°C° 0 mm 2 mps 711 mmHg 35%
    14:00 +8°C° 0 mm 2 mps 710 mmHg 37%
    15:00 +8°C° 0 mm 2 mps 709 mmHg 38%
    16:00 +9°C° 0 mm 1 mps 709 mmHg 40%
    17:00 +7°C° 0 mm 1 mps 709 mmHg 48%
    18:00 +5°C° 0 mm 1 mps 709 mmHg 56%
    19:00 +3°C° 0 mm 1 mps 708 mmHg 64%
    20:00 +2°C° 0 mm 1 mps 708 mmHg 66%
    21:00 +1°C° 0 mm 1 mps 708 mmHg 68%
    22:00 0°C° 0 mm 1 mps 708 mmHg 70%
    23:00 -1°C° 0 mm 0 mps 708 mmHg 71%

    2 April, Thursday

    Time Temperature Precipitation Wind Pressure Humidity
    00:00 -2°C° 0 mm 0 mps 708 mmHg 72%
    01:00 -2°C° 0 mm 0 mps 708 mmHg 73%
    02:00 -2°C° 0 mm 0 mps 708 mmHg 74%
    03:00 -2°C° 0 mm 0 mps 708 mmHg 75%
    04:00 -2°C° 0 mm 0 mps 707 mmHg 75%
    05:00 -1°C° 0 mm 1 mps 707 mmHg 73%
    06:00 0°C° 0 mm 1 mps 708 mmHg 71%
    07:00 +1°C° 0 mm 1 mps 708 mmHg 70%
    08:00 +3°C° 0 mm 1 mps 708 mmHg 63%
    09:00 +6°C° 0 mm 1 mps 707 mmHg 56%
    10:00 +9°C° 0 mm 1 mps 707 mmHg 50%
    11:00 +10°C° 0 mm 1 mps 707 mmHg 47%
    12:00 +11°C° 0 mm 1 mps 707 mmHg 45%
    13:00 +12°C° 0 mm 1 mps 707 mmHg 42%
    14:00 +12°C° 0 mm 2 mps 706 mmHg 44%
    15:00 +12°C° 0 mm 2 mps 706 mmHg 46%
    16:00 +12°C° 0 mm 2 mps 706 mmHg 47%
    17:00 +9°C° 0 mm 2 mps 706 mmHg 57%
    18:00 +7°C° 0 mm 2 mps 706 mmHg 67%
    19:00 +5°C° 0 mm 1 mps 706 mmHg 76%
    20:00 +4°C° 0 mm 1 mps 706 mmHg 78%
    21:00 +3°C° 0 mm 1 mps 706 mmHg 80%
    22:00 +2°C° 0 mm 1 mps 707 mmHg 82%
    23:00 +1°C° 0 mm 1 mps 707 mmHg 83%

    3 April, Friday

    Time Temperature Precipitation Wind Pressure Humidity
    00:00 +1°C° 0 mm 1 mps 707 mmHg 84%
    01:00 +1°C° 0 mm 1 mps 707 mmHg 85%
    02:00 0°C° 0 mm 1 mps 707 mmHg 86%
    03:00 0°C° 0 mm 1 mps 707 mmHg 87%
    04:00 0°C° 0 mm 1 mps 708 mmHg 88%
    05:00 +1°C° 0 mm 1 mps 708 mmHg 86%
    06:00 +1°C° 0 mm 1 mps 708 mmHg 85%
    07:00 +1°C° 0 mm 0 mps 709 mmHg 84%
    08:00 +4°C° 0 mm 1 mps 709 mmHg 76%
    09:00 +7°C° 0 mm 1 mps 709 mmHg 68%
    10:00 +9°C° 0 mm 1 mps 710 mmHg 60%
    11:00 +10°C° 0 mm 1 mps 710 mmHg 58%
    12:00 +10°C° 0 mm 1 mps 710 mmHg 56%
    13:00 +11°C° 0 mm 1 mps 710 mmHg 54%
    14:00 +11°C° 0 mm 1 mps 710 mmHg 55%
    15:00 +11°C° 0 mm 1 mps 710 mmHg 55%
    16:00 +10°C° 0 mm 2 mps 709 mmHg 56%
    17:00 +8°C° 0 mm 2 mps 710 mmHg 65%
    18:00 +6°C° 0 mm 2 mps 710 mmHg 73%
    19:00 +4°C° 0 mm 2 mps 710 mmHg 82%
    20:00 +3°C° 0 mm 2 mps 710 mmHg 84%
    21:00 +2°C° 0 mm 2 mps 711 mmHg 85%
    22:00 +2°C° 0 mm 1 mps 711 mmHg 87%
    23:00 +2°C° 0 mm 1 mps 711 mmHg 88%

    4 April, Saturday

    Time Temperature Precipitation Wind Pressure Humidity
    00:00 +2°C° 0 mm 1 mps 711 mmHg 88%
    01:00 +1°C° 0 mm 1 mps 711 mmHg 89%
    02:00 +1°C° 0 mm 1 mps 711 mmHg 89%
    03:00 +1°C° 0 mm 1 mps 711 mmHg 90%
    04:00 +1°C° 0 mm 1 mps 711 mmHg 90%
    05:00 +1°C° 0 mm 1 mps 712 mmHg 89%
    06:00 +1°C° 0 mm 1 mps 712 mmHg 88%
    07:00 +2°C° 0 mm 1 mps 712 mmHg 87%
    08:00 +3°C° 0 mm 2 mps 712 mmHg 80%
    09:00 +6°C° 0 mm 2 mps 712 mmHg 73%
    10:00 +9°C° 0 mm 3 mps 712 mmHg 65%
    11:00 +10°C° 0 mm 3 mps 712 mmHg 62%
    12:00 +12°C° 0 mm 3 mps 712 mmHg 59%
    13:00 +13°C° 0 mm 3 mps 712 mmHg 56%
    14:00 +13°C° 0 mm 3 mps 711 mmHg 57%
    15:00 +13°C° 0 mm 3 mps 711 mmHg 58%
    16:00 +13°C° 0 mm 3 mps 711 mmHg 59%
    17:00 +12°C° 0 mm 2 mps 711 mmHg 69%
    18:00 +9°C° 0 mm 2 mps 711 mmHg 78%
    19:00 +7°C° 0 mm 2 mps 711 mmHg 88%
    20:00 +7°C° 0 mm 2 mps 711 mmHg 89%
    21:00 +7°C° 0 mm 1 mps 711 mmHg 90%
    22:00 +6°C° 0 mm 1 mps 712 mmHg 91%
    23:00 +5°C° 0 mm 1 mps 712 mmHg 91%
    Show more